KF0JJO Weather Reports


time (UTC)temp
C
wind
direction
speed
KPH
gust
KPH
rain 1hr
cm
rain 24hr
cm
rain mn
cm
humidity
%
barometer
mb
20260906173650 25 33 0.0 1.6 0.00 0.00 0.00 70 1050.6
20260906173146 25 31 0.0 3.2 0.00 0.00 0.00 71 1050.5
20260906172645 25 36 1.6 3.2 0.00 0.00 0.00 70 1050.9
20260906172141 25 30 3.2 4.8 0.00 0.00 0.00 71 1050.6
20260906171640 25 35 0.0 3.2 0.00 0.00 0.00 71 1050.6
20260906171136 25 34 3.2 4.8 0.00 0.00 0.00 71 1050.5
20260906170632 25 34 0.0 3.2 0.00 0.00 0.00 72 1050.9
20260906170131 25 35 1.6 3.2 0.00 0.00 0.00 71 1050.9
20260906165627 25 36 0.0 3.2 0.00 0.00 0.00 72 1050.8
20260906165123 25 34 0.0 3.2 0.00 0.00 0.00 72 1051.0
20260906164621 25 34 0.0 1.6 0.00 0.00 0.00 72 1051.0
20260906164117 25 27 0.0 1.6 0.00 0.00 0.00 72 1051.2
20260906163613 25 39 1.6 1.6 0.00 0.00 0.00 72 1051.1
20260906163108 25 37 0.0 1.6 0.00 0.00 0.00 72 1051.1
20260906162606 25 33 0.0 1.6 0.00 0.00 0.00 74 1051.2
20260906162100 24 36 0.0 4.8 0.00 0.00 0.00 75 1051.4
20260906161555 24 31 0.0 1.6 0.00 0.00 0.00 75 1051.2
20260906161054 24 34 0.0 1.6 0.00 0.00 0.00 75 1051.3
20260906160553 24 33 1.6 3.2 0.00 0.00 0.00 75 1051.2
20260906160052 23 21 0.0 9.7 0.00 0.00 0.00 76 1051.1
20260906155550 23 32 0.0 3.2 0.00 0.00 0.00 77 1051.2
20260906155046 23 18 1.6 4.8 0.00 0.00 0.00 77 1051.3
20260906154541 23 29 0.0 1.6 0.00 0.00 0.00 78 1051.4
20260906154040 23 20 4.8 4.8 0.00 0.00 0.00 79 1051.2
20260906153538 23 34 0.0 4.8 0.00 0.00 0.00 79 1051.5
20260906153034 23 34 0.0 1.6 0.00 0.00 0.00 80 1051.3
20260906152533 22 39 1.6 3.2 0.00 0.00 0.00 80 1051.5
20260906152033 22 35 0.0 6.4 0.00 0.00 0.00 81 1051.6
20260906151528 22 29 0.0 4.8 0.00 0.00 0.00 80 1051.5
20260906151024 22 6 3.2 3.2 0.00 0.00 0.00 80 1051.5
20260906150519 22 27 1.6 3.2 0.00 0.00 0.00 80 1051.5
20260906150014 22 38 0.0 3.2 0.00 0.00 0.00 80 1051.4
20260906145513 23 32 0.0 4.8 0.00 0.00 0.00 80 1051.2
20260906145009 22 31 0.0 4.8 0.00 0.00 0.00 81 1051.4
20260906144502 22 35 0.0 3.2 0.00 0.00 0.00 81 1051.4
20260906143958 22 46 1.6 4.8 0.00 0.00 0.00 81 1051.2
20260906143453 22 33 0.0 3.2 0.00 0.00 0.00 81 1051.2
20260906142949 22 34 0.0 4.8 0.00 0.00 0.00 81 1051.3
20260906142448 22 33 0.0 1.6 0.00 0.00 0.00 82 1051.1
20260906141944 22 36 0.0 1.6 0.00 0.00 0.00 82 1051.1
20260906141443 22 24 1.6 3.2 0.00 0.00 0.00 82 1051.4
20260906140938 22 28 0.0 3.2 0.00 0.00 0.00 83 1051.4
20260906140433 22 31 0.0 1.6 0.00 0.00 0.00 83 1051.2
20260906135931 22 37 0.0 3.2 0.00 0.00 0.00 83 1051.1
20260906135430 22 27 1.6 1.6 0.00 0.00 0.00 84 1051.1
20260906134926 22 30 0.0 1.6 0.00 0.00 0.00 85 1051.3
20260906134421 22 35 0.0 4.8 0.00 0.00 0.00 85 1051.2
20260906133915 22 35 0.0 1.6 0.00 0.00 0.00 85 1051.2
20260906133411 22 62 1.6 3.2 0.00 0.00 0.00 86 1051.0
20260906132907 21 27 0.0 1.6 0.00 0.00 0.00 87 1050.9
20260906132402 21 30 0.0 1.6 0.00 0.00 0.00 88 1050.9
20260906131857 21 28 1.6 1.6 0.00 0.00 0.00 89 1050.9
20260906131353 21 33 1.6 1.6 0.00 0.00 0.00 89 1050.7
20260906130849 21 27 1.6 3.2 0.00 0.00 0.00 90 1050.7
20260906130348 21 32 0.0 1.6 0.00 0.00 0.00 90 1050.8
20260906125847 21 34 0.0 3.2 0.00 0.00 0.00 91 1050.8
20260906125344 20 32 1.6 1.6 0.00 0.00 0.00 92 1050.6
20260906124839 20 32 0.0 1.6 0.00 0.00 0.00 93 1050.6
20260906124335 20 31 0.0 3.2 0.00 0.00 0.00 94 1050.8
20260906123834 20 29 0.0 0.0 0.00 0.00 0.00 94 1050.8
20260906123329 20 29 0.0 0.0 0.00 0.00 0.00 94 1050.7
20260906122829 20 29 0.0 1.6 0.00 0.00 0.00 95 1050.7
20260906122324 20 31 0.0 0.0 0.00 0.00 0.00 95 1050.9
20260906121821 20 29 0.0 0.0 0.00 0.00 0.00 95 1050.8
20260906121317 20 23 1.6 1.6 0.00 0.00 0.00 95 1050.6
20260906120813 20 29 0.0 0.0 0.00 0.00 0.00 95 1050.3
20260906120308 20 32 0.0 0.0 0.00 0.00 0.00 94 1050.6
20260906115804 20 32 0.0 0.0 0.00 0.00 0.00 94 1050.4
20260906115259 20 32 0.0 0.0 0.00 0.00 0.00 94 1050.4
20260906114759 20 32 0.0 0.0 0.00 0.00 0.00 94 1050.4
20260906114254 20 32 0.0 0.0 0.00 0.00 0.00 94 1050.4
20260906113749 20 32 0.0 0.0 0.00 0.00 0.00 94 1050.3
20260906113249 20 32 0.0 0.0 0.00 0.00 0.00 94 1050.3
20260906112748 20 32 0.0 0.0 0.00 0.00 0.00 94 1050.2
20260906112245 20 32 0.0 0.0 0.00 0.00 0.00 94 1050.1
20260906111745 20 32 0.0 0.0 0.00 0.00 0.00 93 1050.2
20260906111244 20 32 0.0 0.0 0.00 0.00 0.00 93 1050.4
20260906110739 20 32 0.0 0.0 0.00 0.00 0.00 93 1050.1
20260906110236 20 32 0.0 0.0 0.00 0.00 0.00 93 1050.0
20260906105734 20 32 0.0 0.0 0.00 0.00 0.00 93 1050.1
20260906105230 20 32 0.0 0.0 0.00 0.00 0.00 93 1050.1
20260906104725 20 32 0.0 0.0 0.00 0.00 0.00 92 1050.0
20260906104224 20 32 0.0 0.0 0.00 0.00 0.00 92 1050.2
20260906103721 20 32 0.0 0.0 0.00 0.00 0.00 92 1050.1
20260906103216 20 32 0.0 0.0 0.00 0.00 0.00 91 1050.1
20260906102712 20 32 0.0 0.0 0.00 0.00 0.00 91 1050.0
20260906102212 21 32 0.0 0.0 0.00 0.00 0.00 91 1050.2
20260906101712 21 32 0.0 0.0 0.00 0.00 0.00 91 1050.0
20260906101207 21 32 0.0 0.0 0.00 0.00 0.00 90 1050.1
20260906100657 21 32 0.0 0.0 0.00 0.00 0.00 90 1049.8
20260906100156 21 34 0.0 0.0 0.00 0.00 0.00 90 1049.9
20260906095651 21 29 0.0 0.0 0.00 0.00 0.00 89 1049.8
20260906095146 21 29 0.0 1.6 0.00 0.00 0.00 89 1049.5
20260906094645 21 27 1.6 1.6 0.00 0.00 0.00 89 1049.3
20260906094141 21 29 0.0 0.0 0.00 0.00 0.00 89 1049.2
20260906093637 21 25 1.6 1.6 0.00 0.00 0.00 88 1049.2
20260906093132 21 34 0.0 3.2 0.00 0.00 0.00 88 1049.0
20260906092626 21 34 0.0 0.0 0.00 0.00 0.00 88 1049.1
20260906092121 21 36 0.0 0.0 0.00 0.00 0.00 88 1049.0
20260906091617 21 32 0.0 0.0 0.00 0.00 0.00 88 1049.1
20260906091114 21 30 0.0 0.0 0.00 0.00 0.00 88 1049.0
20260906090609 21 35 0.0 0.0 0.00 0.00 0.00 88 1049.1
20260906090108 21 30 0.0 0.0 0.00 0.00 0.00 88 1049.1
20260906085608 21 29 0.0 1.6 0.00 0.00 0.00 88 1049.1
20260906085102 21 30 0.0 0.0 0.00 0.00 0.00 87 1049.2
20260906084557 21 34 0.0 6.4 0.00 0.00 0.00 87 1049.2
20260906084055 21 34 0.0 3.2 0.00 0.00 0.00 87 1049.1
20260906083551 21 30 0.0 1.6 0.00 0.00 0.00 87 1049.0
20260906083051 21 29 0.0 0.0 0.00 0.00 0.00 87 1048.9
20260906082546 21 33 0.0 3.2 0.00 0.00 0.00 87 1049.0
20260906082042 21 33 0.0 0.0 0.00 0.00 0.00 86 1048.8
20260906081538 21 32 0.0 1.6 0.00 0.00 0.00 87 1049.1
20260906081033 21 30 0.0 0.0 0.00 0.00 0.00 87 1049.0
20260906080529 21 28 1.6 1.6 0.00 0.00 0.00 87 1049.1
20260906080026 21 29 0.0 0.0 0.00 0.00 0.00 88 1048.9
20260906075525 21 32 0.0 0.0 0.00 0.00 0.00 88 1049.1
20260906075020 21 32 0.0 0.0 0.00 0.00 0.00 88 1048.8
20260906074515 21 32 0.0 0.0 0.00 0.00 0.00 88 1048.9
20260906074013 21 28 0.0 0.0 0.00 0.00 0.00 88 1049.1
20260906073508 21 28 0.0 0.0 0.00 0.00 0.00 88 1049.1
20260906073004 21 28 0.0 0.0 0.00 0.00 0.00 88 1049.3
20260906072459 21 28 0.0 0.0 0.00 0.00 0.00 88 1049.3
20260906071955 21 28 0.0 0.0 0.00 0.00 0.00 88 1049.1
20260906071451 21 28 0.0 0.0 0.00 0.00 0.00 88 1049.4
20260906070946 21 28 0.0 0.0 0.00 0.00 0.00 88 1049.4
20260906070442 21 28 0.0 0.0 0.00 0.00 0.00 88 1049.3
20260906065938 22 28 0.0 0.0 0.00 0.00 0.00 87 1049.5
20260906065432 22 28 0.0 0.0 0.00 0.00 0.00 87 1049.7
20260906064928 22 28 0.0 0.0 0.00 0.00 0.00 86 1049.5
20260906064424 22 28 0.0 0.0 0.00 0.00 0.00 86 1049.2
20260906063924 22 28 0.0 0.0 0.00 0.00 0.00 85 1049.3
20260906063419 22 28 0.0 0.0 0.00 0.00 0.00 85 1049.5
20260906062914 22 29 0.0 0.0 0.00 0.00 0.00 84 1049.3
20260906062414 22 29 0.0 0.0 0.00 0.00 0.00 84 1049.3
20260906061910 22 29 0.0 0.0 0.00 0.00 0.00 84 1049.4
20260906061406 22 29 0.0 0.0 0.00 0.00 0.00 84 1049.5
20260906060900 22 29 0.0 0.0 0.00 0.00 0.00 83 1049.4
20260906060357 22 29 0.0 0.0 0.00 0.00 0.00 84 1049.5
20260906055853 22 29 0.0 0.0 0.00 0.00 0.00 84 1049.4
20260906055349 22 29 0.0 0.0 0.00 0.00 0.00 84 1049.4
20260906054843 22 29 0.0 0.0 0.00 0.00 0.00 85 1049.4
20260906054338 22 29 0.0 1.6 0.00 0.00 0.00 85 1049.3
20260906053835 22 29 0.0 1.6 0.00 0.00 0.00 86 1049.4
20260906053331 22 31 0.0 0.0 0.00 0.00 0.00 86 1049.4
20260906052826 22 31 0.0 0.0 0.00 0.00 0.00 86 1049.4
20260906052322 22 31 0.0 0.0 0.00 0.00 0.00 85 1049.4
20260906051819 22 31 0.0 0.0 0.00 0.00 0.00 85 1049.3
20260906051318 22 31 0.0 0.0 0.00 0.00 0.00 85 1049.5
20260906050814 22 31 0.0 0.0 0.00 0.00 0.00 85 1049.7
20260906050309 22 31 0.0 0.0 0.00 0.00 0.00 85 1049.7
20260906045808 22 31 0.0 0.0 0.00 0.00 0.00 85 1049.7
20260906045305 22 31 0.0 0.0 0.00 0.00 0.00 85 1049.5
20260906044759 22 31 0.0 0.0 0.00 0.00 0.00 85 1049.5
20260906044253 22 31 0.0 0.0 0.00 0.00 0.00 85 1049.8
20260906043749 22 31 0.0 0.0 0.00 0.00 0.00 85 1049.9
20260906043245 22 31 0.0 0.0 0.00 0.00 0.00 85 1049.7
20260906042745 22 31 0.0 0.0 0.00 0.00 0.00 85 1049.8
20260906042243 22 31 0.0 0.0 0.00 0.00 0.00 85 1050.0
20260906041739 22 31 0.0 0.0 0.00 0.00 0.00 84 1049.5
20260906041235 22 31 0.0 0.0 0.00 0.00 0.00 84 1049.9
20260906040730 22 31 0.0 0.0 0.00 0.00 0.00 83 1049.9
20260906040225 22 31 0.0 0.0 0.00 0.00 0.00 83 1049.9
20260906035721 22 31 0.0 0.0 0.00 0.00 0.00 83 1050.0
20260906035216 22 31 0.0 0.0 0.00 0.00 0.00 83 1050.0
20260906034716 22 31 0.0 0.0 0.00 0.00 0.00 83 1050.0
20260906034211 22 31 0.0 0.0 0.00 0.00 0.00 82 1049.9
20260906033707 22 31 0.0 0.0 0.00 0.00 0.00 82 1049.9
20260906033201 22 31 0.0 0.0 0.00 0.00 0.00 81 1049.9
20260906032658 22 31 0.0 0.0 0.00 0.00 0.00 80 1049.8
20260906032158 23 31 0.0 0.0 0.00 0.00 0.00 80 1049.7
20260906031653 23 31 0.0 0.0 0.00 0.00 0.00 79 1049.8
20260906031148 23 31 0.0 0.0 0.00 0.00 0.00 78 1049.9
20260906030648 23 31 0.0 0.0 0.00 0.00 0.00 77 1050.0
20260906030143 23 31 0.0 0.0 0.00 0.00 0.00 77 1049.9
20260906025642 23 31 0.0 0.0 0.00 0.00 0.00 76 1050.0
20260906025142 23 31 0.0 0.0 0.00 0.00 0.00 76 1049.9
20260906024637 23 31 0.0 0.0 0.00 0.00 0.00 75 1050.0
20260906024136 23 31 0.0 0.0 0.00 0.00 0.00 75 1050.0
20260906023632 23 31 0.0 0.0 0.00 0.00 0.00 75 1049.8
20260906023132 24 31 0.0 0.0 0.00 0.00 0.00 74 1049.5
20260906022627 24 31 0.0 0.0 0.00 0.00 0.00 74 1049.7
20260906022123 24 31 0.0 0.0 0.00 0.00 0.00 74 1049.4
20260906021619 24 33 0.0 0.0 0.00 0.00 0.00 73 1049.2
20260906021117 24 32 0.0 0.0 0.00 0.00 0.00 73 1049.2
20260906020617 24 32 0.0 0.0 0.00 0.00 0.00 73 1049.1
20260906020112 24 31 0.0 0.0 0.00 0.00 0.00 73 1049.1
20260906015606 24 30 0.0 0.0 0.00 0.00 0.00 72 1048.9
20260906015105 25 30 0.0 1.6 0.00 0.00 0.00 72 1048.7
20260906014600 25 25 3.2 4.8 0.00 0.00 0.00 72 1048.6
20260906014056 25 29 0.0 3.2 0.00 0.00 0.00 72 1048.4
20260906013551 25 32 0.0 1.6 0.00 0.00 0.00 72 1048.1
20260906013046 25 28 0.0 1.6 0.00 0.00 0.00 72 1048.2
20260906012541 25 32 3.2 3.2 0.00 0.00 0.00 71 1048.2
20260906012041 25 34 0.0 1.6 0.00 0.00 0.00 72 1047.7
20260906011537 25 23 1.6 3.2 0.00 0.00 0.00 72 1047.7
20260906011037 26 42 1.6 1.6 0.00 0.00 0.00 71 1047.8
20260906010532 26 36 1.6 3.2 0.00 0.00 0.00 71 1047.6
20260906010029 26 36 1.6 1.6 0.00 0.00 0.00 70 1047.6
20260906005527 26 35 0.0 0.0 0.00 0.00 0.00 68 1047.7
20260906005027 26 30 0.0 0.0 0.00 0.00 0.00 67 1047.5
20260906004526 26 37 0.0 0.0 0.00 0.00 0.00 66 1047.3
20260906004021 26 34 0.0 1.6 0.00 0.00 0.00 66 1047.1
20260906003516 26 31 0.0 0.0 0.00 0.00 0.00 65 1047.1
20260906003013 27 29 0.0 0.0 0.00 0.00 0.00 64 1047.2
20260906002507 27 29 1.6 1.6 0.00 0.00 0.00 63 1047.0
20260906002002 27 36 0.0 0.0 0.00 0.00 0.00 62 1046.7
20260906001458 27 27 0.0 1.6 0.00 0.00 0.00 61 1047.1
20260906000952 27 34 0.0 1.6 0.00 0.00 0.00 61 1047.3
20260906000448 27 38 0.0 1.6 0.00 0.00 0.00 60 1047.2
20260905235947 27 34 0.0 0.0 0.00 0.00 0.00 59 1047.2
20260905235442 28 31 0.0 1.6 0.00 0.00 0.00 59 1047.2
20260905234937 28 33 3.2 3.2 0.00 0.00 0.00 58 1047.1
20260905234433 28 36 0.0 0.0 0.00 0.00 0.00 58 1046.9
20260905233932 28 33 1.6 1.6 0.00 0.00 0.00 57 1046.9
20260905233428 28 35 0.0 4.8 0.00 0.00 0.00 57 1046.8
20260905232927 28 32 0.0 1.6 0.00 0.00 0.00 55 1046.7
20260905232423 28 38 0.0 3.2 0.00 0.00 0.00 56 1046.8
20260905231918 28 36 0.0 1.6 0.00 0.00 0.00 56 1046.8
20260905231414 28 35 0.0 1.6 0.00 0.00 0.00 56 1046.6
20260905230911 29 42 4.8 6.4 0.00 0.00 0.00 55 1046.7
20260905230408 29 37 0.0 1.6 0.00 0.00 0.00 55 1046.7
20260905225907 29 28 1.6 3.2 0.00 0.00 0.00 55 1046.7
20260905225402 30 51 3.2 4.8 0.00 0.00 0.00 54 1046.5
20260905224857 30 37 1.6 3.2 0.00 0.00 0.00 54 1046.5
20260905224354 30 38 0.0 4.8 0.00 0.00 0.00 53 1046.6
20260905223848 31 34 0.0 3.2 0.00 0.00 0.00 53 1046.4
20260905223346 31 35 0.0 3.2 0.00 0.00 0.00 53 1046.6
20260905222845 31 39 0.0 1.6 0.00 0.00 0.00 52 1046.6
20260905222344 31 39 0.0 1.6 0.00 0.00 0.00 53 1046.6
20260905221841 31 40 1.6 1.6 0.00 0.00 0.00 52 1046.7
20260905221337 31 37 1.6 1.6 0.00 0.00 0.00 51 1046.8
20260905220833 31 34 1.6 3.2 0.00 0.00 0.00 51 1046.9
20260905220329 32 37 0.0 1.6 0.00 0.00 0.00 50 1046.9
20260905215828 31 40 1.6 1.6 0.00 0.00 0.00 51 1046.6
20260905215324 31 46 1.6 1.6 0.00 0.00 0.00 50 1046.5
20260905214820 31 29 1.6 6.4 0.00 0.00 0.00 51 1046.6
20260905214315 31 35 0.0 3.2 0.00 0.00 0.00 50 1046.9
20260905213810 31 39 1.6 3.2 0.00 0.00 0.00 50 1046.8
20260905213306 31 30 0.0 1.6 0.00 0.00 0.00 50 1046.7
20260905212801 31 33 0.0 3.2 0.00 0.00 0.00 52 1046.7
20260905212300 31 36 1.6 4.8 0.00 0.00 0.00 51 1046.8
20260905211755 31 39 0.0 3.2 0.00 0.00 0.00 50 1046.6
20260905211250 31 30 3.2 4.8 0.00 0.00 0.00 51 1046.9
20260905210747 31 39 1.6 1.6 0.00 0.00 0.00 52 1046.6
20260905210246 31 22 1.6 4.8 0.00 0.00 0.00 52 1047.0
20260905205745 31 35 1.6 3.2 0.00 0.00 0.00 52 1047.2
20260905205240 31 33 1.6 4.8 0.00 0.00 0.00 53 1047.3
20260905204739 31 33 0.0 3.2 0.00 0.00 0.00 54 1047.7
20260905204235 31 30 0.0 1.6 0.00 0.00 0.00 53 1047.7
20260905203735 30 38 1.6 3.2 0.00 0.00 0.00 55 1047.7
20260905203230 30 34 0.0 3.2 0.00 0.00 0.00 55 1047.9
20260905202726 31 36 1.6 3.2 0.00 0.00 0.00 54 1047.7
20260905202221 30 29 0.0 1.6 0.00 0.00 0.00 56 1047.9
20260905201717 30 32 0.0 1.6 0.00 0.00 0.00 57 1048.1
20260905201217 30 27 1.6 1.6 0.00 0.00 0.00 57 1048.2
20260905200712 29 28 0.0 1.6 0.00 0.00 0.00 58 1048.4
20260905200208 30 32 0.0 1.6 0.00 0.00 0.00 57 1048.4
20260905195705 30 27 0.0 1.6 0.00 0.00 0.00 58 1048.4
20260905195201 30 31 0.0 1.6 0.00 0.00 0.00 57 1048.6
20260905194656 30 34 0.0 1.6 0.00 0.00 0.00 56 1048.6
20260905194150 30 33 0.0 1.6 0.00 0.00 0.00 57 1048.8
20260905193649 30 54 0.0 1.6 0.00 0.00 0.00 56 1048.6
20260905193145 30 31 0.0 1.6 0.00 0.00 0.00 58 1048.8
20260905192640 30 35 0.0 3.2 0.00 0.00 0.00 58 1048.8
20260905192137 30 15 1.6 3.2 0.00 0.00 0.00 57 1048.8
20260905191636 30 33 1.6 1.6 0.00 0.00 0.00 57 1048.8
20260905191134 30 35 1.6 3.2 0.00 0.00 0.00 57 1048.8
20260905190633 29 46 0.0 1.6 0.00 0.00 0.00 59 1048.9
20260905190132 28 31 0.0 3.2 0.00 0.00 0.00 61 1049.0
20260905185631 28 36 1.6 3.2 0.00 0.00 0.00 63 1048.8
20260905185125 28 29 0.0 3.2 0.00 0.00 0.00 64 1048.9
20260905184620 28 28 0.0 3.2 0.00 0.00 0.00 64 1049.1
20260905184119 27 13 3.2 3.2 0.00 0.00 0.00 64 1048.9
20260905183619 28 38 1.6 1.6 0.00 0.00 0.00 64 1049.1
20260905183114 27 7 1.6 3.2 0.00 0.00 0.00 64 1049.0
20260905182613 27 33 0.0 1.6 0.00 0.00 0.00 65 1049.0
20260905182114 27 40 1.6 1.6 0.00 0.00 0.00 65 1049.0
20260905181614 27 28 0.0 1.6 0.00 0.00 0.00 66 1049.1
20260905181113 26 52 0.0 0.0 0.00 0.00 0.00 69 1049.1
20260905180608 26 35 1.6 3.2 0.00 0.00 0.00 68 1049.2
20260905180103 26 37 0.0 3.2 0.00 0.00 0.00 71 1049.2
20260905175603 26 33 0.0 1.6 0.00 0.00 0.00 72 1049.3
20260905175058 26 29 0.0 1.6 0.00 0.00 0.00 71 1049.4
20260905174553 26 34 0.0 1.6 0.00 0.00 0.00 71 1049.8